FW0959 Weather Reports


time (UTC)temp
C
wind
direction
speed
KPH
gust
KPH
rain 1hr
cm
rain 24hr
cm
rain mn
cm
humidity
%
barometer
mb
20260509011928 12 292 0.0 0.0 0.00 0.00 0.00 82 1018.3
20260509010931 12 292 0.0 0.0 0.00 0.00 0.00 82 1018.6
20260509005929 13 292 0.0 0.0 0.00 0.00 0.00 81 1018.5
20260509004931 13 292 0.0 0.0 0.00 0.00 0.00 80 1018.3
20260509003928 13 292 0.0 0.0 0.00 0.00 0.00 80 1018.4
20260509002930 13 292 0.0 0.0 0.00 0.00 0.00 79 1018.1
20260509002029 13 292 0.0 0.0 0.00 0.00 0.00 78 1018.3
20260509000030 13 292 0.0 0.0 0.00 0.00 0.00 76 1018.2
20260508235031 14 292 0.0 0.0 0.00 0.00 0.00 75 1018.1
20260508234128 14 292 0.0 0.0 0.00 0.00 0.00 74 1018.1
20260508233130 15 292 0.0 0.0 0.00 0.00 0.00 73 1017.9
20260508232228 15 292 0.0 0.0 0.00 0.00 0.00 72 1018.1
20260508232129 15 292 0.0 0.0 0.00 0.00 0.00 72 1018.2
20260508230130 15 292 0.0 1.6 0.00 0.00 0.00 71 1018.0
20260508225130 15 292 0.0 0.0 0.00 0.00 0.00 70 1017.9
20260508225029 15 292 0.0 0.0 0.00 0.00 0.00 70 1017.9
20260508224030 16 292 0.0 0.0 0.00 0.00 0.00 69 1018.0
20260508223029 16 292 0.0 3.2 0.00 0.00 0.00 67 1018.2
20260508222029 16 292 0.0 1.6 0.00 0.00 0.00 66 1018.1
20260508221128 16 292 0.0 0.0 0.00 0.00 0.00 66 1017.8
20260508221028 16 292 1.6 3.2 0.00 0.00 0.00 66 1018.0
20260508220931 16 292 0.0 1.6 0.00 0.00 0.00 66 1018.0
20260508220028 16 292 0.0 1.6 0.00 0.00 0.00 63 1017.9
20260508215030 16 292 0.0 0.0 0.00 0.00 0.00 62 1017.6
20260508214128 16 292 1.6 3.2 0.00 0.00 0.00 61 1017.8
20260508214030 17 292 3.2 3.2 0.00 0.00 0.00 61 1017.8
20260508213031 17 270 1.6 3.2 0.00 0.00 0.00 59 1017.9
20260508212128 17 247 4.8 6.4 0.00 0.00 0.00 58 1018.0
20260508211131 17 292 1.6 6.4 0.00 0.00 0.00 57 1017.7
20260508210129 17 337 0.0 1.6 0.00 0.00 0.00 56 1017.6
20260508205131 18 292 3.2 6.4 0.00 0.00 0.00 58 1017.5
20260508204129 18 292 1.6 4.8 0.00 0.00 0.00 55 1017.5
20260508203227 18 315 0.0 1.6 0.00 0.00 0.00 53 1017.5
20260508203132 18 315 0.0 0.0 0.00 0.00 0.00 53 1017.4
20260508202129 18 247 0.0 1.6 0.00 0.00 0.00 53 1017.6
20260508201128 18 247 3.2 6.4 0.00 0.00 0.00 53 1017.9
20260508200130 18 292 3.2 4.8 0.00 0.00 0.00 51 1017.7
20260508195130 19 275 1.6 4.8 0.00 0.00 0.00 53 1017.8
20260508194129 18 9 0.0 1.6 0.00 0.00 0.00 52 1018.0
20260508193130 18 337 1.6 3.2 0.00 0.00 0.00 52 1018.4
20260508192130 18 289 3.2 4.8 0.00 0.00 0.00 49 1018.7
20260508191129 19 292 3.2 6.4 0.00 0.00 0.00 50 1018.6
20260508190228 18 247 0.0 1.6 0.00 0.00 0.00 50 1018.7
20260508184327 20 292 4.8 8.0 0.00 0.00 0.00 51 1018.9
20260508183328 19 247 3.2 6.4 0.00 0.00 0.00 55 1019.1
20260508183228 19 240 3.2 4.8 0.00 0.00 0.00 55 1019.2
20260508182230 18 359 3.2 4.8 0.00 0.00 0.00 53 1019.3
20260508181228 18 243 3.2 6.4 0.00 0.00 0.00 55 1019.4
20260508180229 18 247 0.0 0.0 0.00 0.00 0.00 54 1019.6
20260508175228 18 247 3.2 3.2 0.00 0.00 0.00 55 1019.5
20260508174231 17 247 0.0 1.6 0.00 0.00 0.00 57 1019.5
20260508172229 18 248 1.6 3.2 0.00 0.00 0.00 54 1020.0
20260508171328 17 250 0.0 3.2 0.00 0.00 0.00 55 1020.0
20260508165328 17 263 0.0 3.2 0.00 0.00 0.00 56 1020.5
20260508163329 17 247 3.2 4.8 0.00 0.00 0.00 59 1020.6
20260508161329 16 247 0.0 0.0 0.00 0.00 0.00 64 1020.9
20260508160428 16 293 1.6 4.8 0.00 0.00 0.00 67 1020.9
20260508160330 16 329 1.6 4.8 0.00 0.00 0.00 67 1020.9
20260508155428 16 292 3.2 4.8 0.00 0.00 0.00 71 1021.1
20260508154428 14 243 0.0 4.8 0.00 0.00 0.00 79 1021.1
20260508153429 12 337 0.0 1.6 0.00 0.00 0.00 83 1021.2
20260508152429 11 29 0.0 3.2 0.00 0.00 0.00 88 1021.4
20260508151429 11 45 3.2 3.2 0.00 0.00 0.00 89 1021.4
20260508150430 11 45 1.6 1.6 0.00 0.00 0.00 89 1021.2
20260508145428 11 45 3.2 3.2 0.00 0.00 0.00 91 1021.2
20260508145328 11 45 3.2 3.2 0.00 0.00 0.00 91 1021.1
20260508144329 10 45 1.6 3.2 0.00 0.00 0.00 91 1021.2
20260508143331 10 45 3.2 3.2 0.00 0.00 0.00 92 1021.2
20260508141431 9 45 3.2 3.2 0.00 0.00 0.00 94 1021.3
20260508140429 8 45 1.6 3.2 0.00 0.00 0.00 96 1021.5
20260508135430 8 202 0.0 0.0 0.00 0.00 0.00 97 1021.6
20260508133428 7 202 0.0 0.0 0.00 0.00 0.00 99 1021.7
20260508132430 6 202 0.0 0.0 0.00 0.03 0.00 98 1021.7
20260508132328 6 202 0.0 0.0 0.00 0.03 0.00 98 1021.6
20260508131329 6 202 0.0 0.0 0.00 0.03 0.00 98 1021.6
20260508124328 5 202 0.0 0.0 0.00 0.08 0.00 98 1021.3
20260508122329 5 202 0.0 0.0 0.00 0.10 0.00 98 1021.1
20260508121328 5 202 0.0 0.0 0.00 0.13 0.00 98 1021.0
20260508120329 5 202 0.0 0.0 0.00 0.15 0.00 98 1020.8
20260508115330 5 202 0.0 0.0 0.00 0.18 0.00 98 1020.8
20260508114329 5 202 0.0 0.0 0.00 0.23 0.00 98 1020.6
20260508113328 5 202 0.0 0.0 0.00 0.28 0.00 98 1020.4
20260508112330 5 202 0.0 0.0 0.00 0.33 0.00 98 1020.3
20260508111331 5 202 0.0 0.0 0.00 0.36 0.00 98 1020.2
20260508110330 5 202 0.0 0.0 0.00 0.38 0.00 97 1020.0
20260508104330 5 202 0.0 0.0 0.00 0.48 0.00 97 1019.8
20260508103330 5 202 0.0 0.0 0.00 0.56 0.00 97 1019.8
20260508102330 5 202 0.0 0.0 0.00 0.56 0.00 97 1019.5
20260508101329 5 202 0.0 0.0 0.00 0.56 0.00 97 1019.4
20260508100428 5 202 0.0 0.0 0.00 0.56 0.00 97 1019.2
20260508095429 5 202 0.0 0.0 0.00 0.56 0.00 97 1019.0
20260508094429 5 202 0.0 0.0 0.00 0.58 0.00 97 1018.7
20260508094328 5 202 0.0 0.0 0.00 0.58 0.00 97 1018.7
20260508093328 5 202 0.0 0.0 0.00 0.58 0.00 97 1018.8
20260508092331 6 202 0.0 0.0 0.00 0.58 0.00 96 1018.8
20260508092230 6 202 0.0 0.0 0.00 0.58 0.00 96 1018.7
20260508091230 6 202 0.0 1.6 0.00 0.58 0.00 96 1018.8
20260508090327 6 202 0.0 1.6 0.00 0.58 0.00 96 1018.9
20260508085330 6 202 0.0 0.0 0.00 0.58 0.00 96 1018.7
20260508084328 6 202 0.0 0.0 0.00 0.58 0.00 96 1018.4
20260508080330 6 247 0.0 0.0 0.00 0.58 0.00 95 1018.5
20260508075331 6 247 0.0 0.0 0.00 0.58 0.00 95 1018.3
20260508074330 6 247 0.0 1.6 0.00 0.61 0.00 95 1018.3
20260508073330 6 247 0.0 0.0 0.00 0.66 0.00 94 1018.5
20260508072428 6 247 0.0 0.0 0.00 0.66 0.00 94 1018.5
20260508071430 7 247 0.0 0.0 0.00 0.66 0.00 94 1018.3
20260508071329 7 247 0.0 0.0 0.00 0.66 0.00 94 1018.2
20260508065328 7 247 0.0 0.0 0.00 0.69 0.00 93 1018.4
20260508064330 7 247 3.2 3.2 0.00 0.69 0.00 92 1018.1
20260508064228 7 247 0.0 1.6 0.00 0.69 0.00 92 1018.1
20260508061328 8 202 0.0 0.0 0.00 0.69 0.00 91 1018.2
20260508060328 8 202 0.0 1.6 0.00 0.71 0.00 90 1018.2
20260508055327 8 202 0.0 0.0 0.00 0.76 0.00 88 1018.0
20260508054329 8 202 0.0 0.0 0.00 0.81 0.00 87 1018.0
20260508054231 8 202 0.0 0.0 0.00 0.81 0.00 87 1018.1
20260508052229 10 90 0.0 0.0 0.00 0.97 0.00 84 1018.3
20260508051230 10 22 3.2 3.2 0.00 0.99 0.00 84 1018.2
20260508051131 10 22 3.2 4.8 0.00 0.99 0.00 84 1018.3
20260508050130 10 22 3.2 3.2 0.00 1.04 0.00 83 1018.3
20260508045130 10 22 3.2 3.2 0.00 1.12 0.00 84 1018.2
20260508044129 10 22 3.2 3.2 0.00 1.14 0.00 84 1018.3
20260508043129 10 22 3.2 4.8 0.00 1.14 0.00 84 1018.0
20260508042227 10 22 1.6 1.6 0.00 1.17 0.00 84 1018.1
20260508041231 10 22 3.2 3.2 0.00 1.17 0.00 83 1017.9
20260508040228 10 22 3.2 6.4 0.00 1.17 0.00 83 1018.0
20260508035308 10 22 3.2 4.8 0.00 1.17 1.17 83 1018.0
20260508034308 11 22 3.2 4.8 0.00 1.17 1.17 84 1017.9
20260508032409 11 22 3.2 4.8 0.00 1.17 1.17 81 1018.0
20260508031406 11 45 1.6 3.2 0.00 1.17 1.17 82 1018.2
20260508030409 11 67 1.6 3.2 0.00 1.17 1.17 83 1017.9
20260508025507 10 22 1.6 3.2 0.00 1.17 1.17 82 1017.8
20260508023508 11 22 0.0 0.0 0.00 1.17 1.17 80 1017.6
20260508022509 11 112 0.0 0.0 0.00 1.17 1.17 80 1017.5
20260508021509 11 112 0.0 0.0 0.00 1.17 1.17 79 1017.4
20260508015609 11 90 0.0 1.6 0.00 1.22 1.17 82 1017.2
20260508014608 11 112 0.0 0.0 0.00 1.27 1.17 83 1017.2
20260508013610 11 112 0.0 0.0 0.00 1.27 1.17 83 1017.0
20260508012608 11 112 0.0 1.6 0.00 1.27 1.17 84 1016.8